Regional Weather Roundup
Issued by NWS

Home | Current Version | Previous Version | Graphics & Text | Print | Product List | Glossary On
Versions: 1 2 3 4 5 6 7 8 9 10 11 12 13 14 15 16 17 18 19 20 21 22 23 24 25 26 27 28 29 30 31 32 33 34 35 36 37 38 39 40 41 42 43 44 45 46 47 48 49 50
000
ASUS44 KMEG 040310
RWRTN
TENNESSEE HOURLY STATE WEATHER ROUNDUP
NATIONAL WEATHER SERVICE MEMPHIS TN
1000 PM CDT TUE MAY 03 2016

TNZ002-004-019-021-049-052-054-088>092-040400-
WEST TENNESSEE

CITY           SKY/WX    TMP DP  RH WIND       PRES   REMARKS
MEMPHIS INTL   CLEAR     57  48  72 CALM      29.97S
NWS MEMPHIS      N/A     53 N/A N/A MISG        N/A
JACKSON        MOCLDY    55  50  83 CALM      29.97R
DYERSBURG      CLEAR     54  48  82 CALM      29.96S
UNION CITY     PTCLDY    52  50  93 CALM      29.95S
LEXINGTON      MOCLDY    54  54 100 CALM      29.95S
$$

TNZ008-025-027-028-033-062-065-066-040400-
NORTH MIDDLE TENNESSEE

CITY           SKY/WX    TMP DP  RH WIND       PRES   REMARKS
NASHVILLE      MOCLDY    58  46  64 W5        29.94R
CLARKSVILLE    PTCLDY    53  48  83 W5        29.94R
SMYRNA         CLOUDY    57  48  72 NW5       29.94S
COOKEVILLE     CLOUDY    57  52  82 CALM      29.91S
CROSSVILLE     CLOUDY    56  46  69 W3        29.93R
$$

TNZ061-075-076-078-094-096-097-040400-
SOUTH MIDDLE TENNESSEE

CITY           SKY/WX    TMP DP  RH WIND       PRES   REMARKS
FAYETTEVILLE   CLOUDY    59  48  67 N5        29.93S
TULLAHOMA      CLOUDY    55  48  76 NW6       29.94S
WINCHESTER     CLOUDY    57  46  67 N5        29.94R
MCMINNVILLE    CLOUDY    57  46  67 NW3G48    29.93S
COLUMBIA       CLOUDY    57  57 100 CALM      29.93S
SHELBYVILLE    CLOUDY    57  48  72 NW5       29.95R
$$

TNZ017-018-042-046-047-040400-
NORTHEAST TENNESSEE

CITY           SKY/WX    TMP DP  RH WIND       PRES   REMARKS
TRI CITIES     CLOUDY    59  46  62 W6        29.86R
$$

TNZ012-013-036-069-073-074-040400-
CENTRAL EAST TENNESSEE

CITY           SKY/WX    TMP DP  RH WIND       PRES   REMARKS
KNOXVILLE      MOCLDY    61  48  62 CALM      29.88R
OAK RIDGE      CLEAR     57  47  69 CALM      29.90R
GATLINBURG     CLOUDY    59  48  67 NW3       29.88R
MORRISTOWN     CLOUDY    59  48  67 CALM      29.87S
$$

TNZ083-085-099-040400-
SOUTHEAST TENNESSEE

CITY           SKY/WX    TMP DP  RH WIND       PRES   REMARKS
CHATTANOOGA    MOCLDY    63  48  58 NW12      29.90R
$$

SKY/WX REPORTED AS FAIR MEANS FEW OR NO CLOUDS BELOW
12 THOUSAND FEET.





USA.gov is the U.S. government's official web portal to all federal, state and local government web resources and services.